User: anonymous   Login
Location: Unspecified
(0.0000°N, 0.0000°E)
Time: 02:39:21
(UTC+00:00)
Language:

DSCS III B-5 - Orbit

View from above orbital plane
View from above orbital plane
View from above satellite
View from above satellite

Ground track
Ground track

The orbit data is extracted from the following two-line orbital elements,

1 16117U 85092C   23081.45399034 -.00000043  00000-0  00000+0 0  9998
2 16117  14.8838 355.0395 0008351  87.2085 107.8484  0.98989441 13993
Epoch (UTC): 22 March 2023 10:53:44
Eccentricity: 0.0008351
inclination: 14.8838°
perigee height: 36114 km
apogee height: 36185 km
right ascension of ascending node: 355.0395°
argument of perigee: 87.2085°
revolutions per day: 0.98989441
mean anomaly at epoch: 107.8484°
orbit number at epoch: 1399

The dashed part of the orbit path shows where the satellite is in the earth's shadow,  

DLR